Time,TemperatureF,DewpointF,PressureIn,WindDirection,WindDirectionDegrees,WindSpeedMPH,WindSpeedGustMPH,Humidity,HourlyPrecipIn,Conditions,Clouds,dailyrainin,SoftwareType,DateUTC
2013-07-02 00:04:00,76.6,70.8,29.94,NNW,338,0.0,0.0,82,0.00,,,0.00,WSDL version 420,2013-07-02 04:04:00,
2013-07-02 00:09:00,76.6,70.7,29.94,NNW,338,0.0,0.0,82,0.00,,,0.00,WSDL version 420,2013-07-02 04:09:00,
2013-07-02 00:14:00,76.6,71.0,29.97,West,270,0.0,0.0,83,0.00,,,0.00,WSDL version 420,2013-07-02 04:14:00,
2013-07-02 00:19:00,76.6,71.2,29.97,West,270,0.0,0.0,83,0.00,,,0.00,WSDL version 420,2013-07-02 04:19:00,
2013-07-02 00:24:00,76.5,71.0,29.97,West,270,0.0,0.0,83,0.00,,,0.00,WSDL version 420,2013-07-02 04:24:00,
2013-07-02 00:29:00,76.5,71.0,29.94,West,270,0.0,0.0,83,0.00,,,0.00,WSDL version 420,2013-07-02 04:29:00,
2013-07-02 00:34:00,76.5,71.0,29.94,ENE,61,0.0,0.0,83,0.00,,,0.00,WSDL version 420,2013-07-02 04:34:00,
2013-07-02 00:39:00,76.5,71.0,29.94,ENE,68,0.0,0.0,83,0.00,,,0.00,WSDL version 420,2013-07-02 04:39:00,
2013-07-02 00:44:00,76.3,70.9,29.94,ESE,116,0.0,0.0,83,0.00,,,0.00,WSDL version 420,2013-07-02 04:44:00,
2013-07-02 00:49:00,76.5,71.0,29.94,ESE,109,0.0,0.0,83,0.00,,,0.00,WSDL version 420,2013-07-02 04:49:00,
2013-07-02 00:54:00,76.3,71.0,29.94,ENE,68,0.0,0.0,84,0.00,,,0.00,WSDL version 420,2013-07-02 04:54:00,
2013-07-02 00:59:00,76.3,71.2,29.94,ESE,118,0.0,0.0,84,0.00,,,0.00,WSDL version 420,2013-07-02 04:59:00,
2013-07-02 01:04:00,76.2,71.2,29.94,ENE,68,0.0,0.0,84,0.00,,,0.00,WSDL version 420,2013-07-02 05:04:00,
2013-07-02 01:09:00,76.3,71.3,29.94,East,90,0.0,0.0,86,0.00,,,0.00,WSDL version 420,2013-07-02 05:09:00,
2013-07-02 01:14:00,76.4,71.7,29.94,East,90,0.0,0.0,86,0.00,,,0.00,WSDL version 420,2013-07-02 05:14:00,
2013-07-02 01:19:00,76.5,71.8,29.94,East,90,0.0,0.0,86,0.00,,,0.00,WSDL version 420,2013-07-02 05:19:00,
2013-07-02 01:24:00,76.5,71.8,29.94,ENE,71,0.0,0.0,86,0.00,,,0.00,WSDL version 420,2013-07-02 05:24:00,
2013-07-02 01:29:00,76.5,71.8,29.94,East,90,0.0,0.0,86,0.00,,,0.00,WSDL version 420,2013-07-02 05:29:00,
2013-07-02 01:34:00,76.6,72.1,29.94,NE,45,0.0,0.9,86,0.00,,,0.00,WSDL version 420,2013-07-02 05:34:00,
2013-07-02 01:39:00,76.6,72.4,29.94,SSW,203,0.0,0.9,87,0.00,,,0.00,WSDL version 420,2013-07-02 05:39:00,
2013-07-02 01:44:00,76.7,72.4,29.94,South,174,0.0,0.9,87,0.00,,,0.00,WSDL version 420,2013-07-02 05:44:00,
2013-07-02 01:49:00,76.8,72.5,29.94,NNW,329,0.0,1.1,87,0.00,,,0.00,WSDL version 420,2013-07-02 05:49:00,
2013-07-02 01:54:00,76.9,72.5,29.94,North,3,0.0,1.1,86,0.00,,,0.00,WSDL version 420,2013-07-02 05:54:00,
2013-07-02 01:59:00,77.0,72.3,29.91,ENE,68,0.0,0.0,86,0.00,,,0.00,WSDL version 420,2013-07-02 05:59:00,
2013-07-02 02:04:00,77.0,72.3,29.91,ESE,113,0.0,0.0,86,0.00,,,0.00,WSDL version 420,2013-07-02 06:04:00,
2013-07-02 02:09:00,77.1,72.2,29.91,East,80,0.0,0.0,84,0.00,,,0.00,WSDL version 420,2013-07-02 06:09:00,
2013-07-02 02:14:00,77.2,72.1,29.91,ENE,68,0.0,0.0,84,0.00,,,0.00,WSDL version 420,2013-07-02 06:14:00,
2013-07-02 02:19:00,77.2,72.1,29.91,ENE,68,0.0,0.0,84,0.00,,,0.00,WSDL version 420,2013-07-02 06:19:00,
2013-07-02 02:24:00,77.4,72.3,29.91,ENE,76,0.0,0.0,84,0.00,,,0.00,WSDL version 420,2013-07-02 06:24:00,
2013-07-02 02:29:00,77.4,72.3,29.91,ESE,113,0.0,0.0,84,0.00,,,0.00,WSDL version 420,2013-07-02 06:29:00,
2013-07-02 02:34:00,77.4,72.3,29.91,ESE,113,0.0,0.0,84,0.00,,,0.00,WSDL version 420,2013-07-02 06:34:00,
2013-07-02 02:39:00,77.4,72.3,29.91,East,90,0.0,0.0,84,0.00,,,0.00,WSDL version 420,2013-07-02 06:39:00,
2013-07-02 02:44:00,77.4,72.3,29.91,SE,129,0.0,0.0,84,0.00,,,0.00,WSDL version 420,2013-07-02 06:44:00,
2013-07-02 02:49:00,77.5,72.4,29.91,East,90,0.0,0.0,84,0.00,,,0.00,WSDL version 420,2013-07-02 06:49:00,
2013-07-02 02:54:00,77.5,72.5,29.91,ENE,73,0.0,0.0,84,0.00,,,0.00,WSDL version 420,2013-07-02 06:54:00,
2013-07-02 02:59:00,77.5,72.5,29.88,ENE,68,0.0,0.0,84,0.00,,,0.00,WSDL version 420,2013-07-02 06:59:00,
2013-07-02 03:04:00,77.5,72.3,29.88,East,90,0.0,0.0,83,0.00,,,0.00,WSDL version 420,2013-07-02 07:04:00,
2013-07-02 03:09:00,77.6,72.3,29.88,East,90,0.0,0.0,83,0.00,,,0.00,WSDL version 420,2013-07-02 07:09:00,
2013-07-02 03:14:00,77.7,72.6,29.91,East,90,0.0,0.0,83,0.00,,,0.00,WSDL version 420,2013-07-02 07:14:00,
2013-07-02 03:19:00,77.7,72.6,29.91,East,90,0.0,0.0,84,0.00,,,0.00,WSDL version 420,2013-07-02 07:19:00,
2013-07-02 03:24:00,77.7,72.7,29.91,East,90,0.0,0.0,84,0.00,,,0.00,WSDL version 420,2013-07-02 07:24:00,
2013-07-02 03:29:00,77.7,72.7,29.91,East,90,0.0,0.0,84,0.00,,,0.00,WSDL version 420,2013-07-02 07:29:00,
2013-07-02 03:34:00,77.7,72.4,29.91,East,90,0.0,0.0,83,0.00,,,0.00,WSDL version 420,2013-07-02 07:34:00,
2013-07-02 03:39:00,77.7,72.3,29.91,East,90,0.0,0.0,83,0.00,,,0.00,WSDL version 420,2013-07-02 07:39:00,
2013-07-02 03:44:00,77.7,72.3,29.91,East,90,0.0,0.0,83,0.00,,,0.00,WSDL version 420,2013-07-02 07:44:00,
2013-07-02 03:49:00,77.7,72.3,29.91,East,100,0.0,0.0,83,0.00,,,0.00,WSDL version 420,2013-07-02 07:49:00,
2013-07-02 03:54:00,77.7,72.3,29.91,SSE,158,0.0,0.0,83,0.00,,,0.00,WSDL version 420,2013-07-02 07:54:00,
2013-07-02 03:59:00,77.7,72.5,29.91,SSE,158,0.0,0.0,84,0.00,,,0.00,WSDL version 420,2013-07-02 07:59:00,
2013-07-02 04:04:00,77.7,72.7,29.91,ESE,119,0.0,0.0,84,0.00,,,0.00,WSDL version 420,2013-07-02 08:04:00,
2013-07-02 04:09:00,77.7,72.7,29.91,ENE,68,0.0,0.0,84,0.00,,,0.00,WSDL version 420,2013-07-02 08:09:00,
2013-07-02 04:14:00,77.7,72.7,29.91,ESE,109,0.0,0.0,84,0.00,,,0.00,WSDL version 420,2013-07-02 08:14:00,
2013-07-02 04:19:00,77.7,72.7,29.91,ENE,68,0.0,0.0,84,0.00,,,0.00,WSDL version 420,2013-07-02 08:19:00,
2013-07-02 04:24:00,77.8,72.8,29.91,ESE,113,0.0,0.0,84,0.00,,,0.00,WSDL version 420,2013-07-02 08:24:00,
2013-07-02 04:29:00,77.9,72.8,29.91,ENE,77,0.1,1.6,84,0.00,,,0.00,WSDL version 420,2013-07-02 08:29:00,
2013-07-02 04:34:00,77.9,72.8,29.91,ESE,117,0.0,1.6,84,0.00,,,0.00,WSDL version 420,2013-07-02 08:34:00,
2013-07-02 04:39:00,78.0,73.3,29.91,ENE,68,0.0,1.3,86,0.00,,,0.00,WSDL version 420,2013-07-02 08:39:00,
2013-07-02 04:44:00,78.1,73.4,29.91,South,169,0.0,1.3,86,0.00,,,0.00,WSDL version 420,2013-07-02 08:44:00,
2013-07-02 04:49:00,78.2,73.5,29.91,SE,125,0.0,1.3,86,0.00,,,0.00,WSDL version 420,2013-07-02 08:49:00,
2013-07-02 04:54:00,78.3,73.6,29.91,SE,144,0.0,1.3,86,0.00,,,0.00,WSDL version 420,2013-07-02 08:54:00,
2013-07-02 04:59:00,78.3,73.6,29.91,North,354,0.0,1.3,86,0.00,,,0.00,WSDL version 420,2013-07-02 08:59:00,
2013-07-02 05:04:00,78.4,74.1,29.91,SE,126,1.6,3.1,87,0.00,,,0.00,WSDL version 420,2013-07-02 09:04:00,
2013-07-02 05:09:00,78.6,74.4,29.91,ENE,60,1.8,3.8,88,0.00,,,0.00,WSDL version 420,2013-07-02 09:09:00,
2013-07-02 05:14:00,78.8,74.5,29.91,SSE,155,0.4,3.8,87,0.00,,,0.00,WSDL version 420,2013-07-02 09:14:00,
2013-07-02 05:19:00,78.8,74.5,29.91,SSE,163,0.0,2.7,87,0.00,,,0.00,WSDL version 420,2013-07-02 09:19:00,
2013-07-02 05:24:00,78.9,74.6,29.91,SE,135,0.8,3.4,87,0.00,,,0.00,WSDL version 420,2013-07-02 09:24:00,
2013-07-02 05:29:00,78.9,74.6,29.91,West,263,0.7,3.4,87,0.00,,,0.00,WSDL version 420,2013-07-02 09:29:00,
2013-07-02 05:34:00,79.0,74.7,29.91,SE,135,0.7,2.2,87,0.00,,,0.00,WSDL version 420,2013-07-02 09:34:00,
2013-07-02 05:39:00,79.2,74.6,29.91,NW,305,1.8,3.1,86,0.00,,,0.00,WSDL version 420,2013-07-02 09:39:00,
2013-07-02 05:44:00,79.2,74.5,29.91,ESE,104,0.2,3.1,86,0.00,,,0.00,WSDL version 420,2013-07-02 09:44:00,
2013-07-02 05:49:00,79.3,74.6,29.91,SE,145,0.7,2.9,86,0.00,,,0.00,WSDL version 420,2013-07-02 09:49:00,
2013-07-02 05:54:00,79.3,74.2,29.91,East,101,1.1,4.3,84,0.00,,,0.00,WSDL version 420,2013-07-02 09:54:00,
2013-07-02 05:59:00,79.3,73.9,29.88,North,10,0.0,4.3,83,0.00,,,0.00,WSDL version 420,2013-07-02 09:59:00,
2013-07-02 06:04:00,79.3,73.8,29.88,SE,141,0.8,2.5,83,0.00,,,0.00,WSDL version 420,2013-07-02 10:04:00,
2013-07-02 06:09:00,79.3,73.8,29.88,West,260,0.4,2.5,83,0.00,,,0.00,WSDL version 420,2013-07-02 10:09:00,
2013-07-02 06:14:00,79.3,73.8,29.91,NW,304,0.4,3.4,83,0.00,,,0.00,WSDL version 420,2013-07-02 10:14:00,
2013-07-02 06:19:00,79.4,73.9,29.91,NNE,31,0.0,3.4,83,0.00,,,0.00,WSDL version 420,2013-07-02 10:19:00,
2013-07-02 06:24:00,79.4,73.8,29.91,ESE,115,0.0,2.5,82,0.00,,,0.00,WSDL version 420,2013-07-02 10:24:00,
2013-07-02 06:29:00,79.3,73.7,29.91,SE,138,0.0,2.5,83,0.00,,,0.00,WSDL version 420,2013-07-02 10:29:00,
2013-07-02 06:34:00,79.5,74.0,29.91,SSE,161,0.0,1.6,83,0.00,,,0.00,WSDL version 420,2013-07-02 10:34:00,
2013-07-02 06:39:00,79.5,74.0,29.91,East,96,0.0,1.6,83,0.00,,,0.00,WSDL version 420,2013-07-02 10:39:00,
2013-07-02 06:44:00,79.5,74.0,29.94,SE,124,0.0,0.0,83,0.00,,,0.00,WSDL version 420,2013-07-02 10:44:00,
2013-07-02 06:49:00,79.5,74.0,29.94,South,180,0.0,0.0,83,0.00,,,0.00,WSDL version 420,2013-07-02 10:49:00,
2013-07-02 06:54:00,79.5,74.0,29.94,SSW,197,0.0,2.2,83,0.00,,,0.00,WSDL version 420,2013-07-02 10:54:00,
2013-07-02 06:59:00,79.7,74.2,29.94,South,177,0.0,2.5,83,0.00,,,0.00,WSDL version 420,2013-07-02 10:59:00,
2013-07-02 07:04:00,79.7,74.2,29.94,ENE,61,0.0,2.5,83,0.00,,,0.00,WSDL version 420,2013-07-02 11:04:00,
2013-07-02 07:09:00,79.9,74.4,29.94,East,96,0.0,0.9,83,0.00,,,0.00,WSDL version 420,2013-07-02 11:09:00,
2013-07-02 07:14:00,80.1,74.6,29.94,East,98,0.3,2.9,83,0.00,,,0.00,WSDL version 420,2013-07-02 11:14:00,
2013-07-02 07:19:00,80.4,74.9,29.94,South,180,1.5,3.1,83,0.00,,,0.00,WSDL version 420,2013-07-02 11:19:00,
2013-07-02 07:24:00,80.5,74.9,29.94,South,190,0.0,3.1,82,0.00,,,0.00,WSDL version 420,2013-07-02 11:24:00,
2013-07-02 07:29:00,80.8,74.9,29.94,SSE,167,0.0,2.2,82,0.00,,,0.00,WSDL version 420,2013-07-02 11:29:00,
2013-07-02 07:34:00,81.1,75.1,29.94,South,183,0.0,2.5,82,0.00,,,0.00,WSDL version 420,2013-07-02 11:34:00,
2013-07-02 07:39:00,81.2,74.9,29.94,SE,125,0.2,2.5,81,0.00,,,0.00,WSDL version 420,2013-07-02 11:39:00,
2013-07-02 07:44:00,81.4,75.1,29.94,SSE,167,0.0,2.0,81,0.00,,,0.00,WSDL version 420,2013-07-02 11:44:00,
2013-07-02 07:49:00,81.7,75.2,29.94,SSW,193,0.4,2.2,80,0.00,,,0.00,WSDL version 420,2013-07-02 11:49:00,
2013-07-02 07:54:00,82.0,75.1,29.94,South,180,0.0,2.2,79,0.00,,,0.00,WSDL version 420,2013-07-02 11:54:00,
2013-07-02 07:59:00,82.3,75.1,29.97,SE,128,0.8,2.2,79,0.00,,,0.00,WSDL version 420,2013-07-02 11:59:00,
2013-07-02 08:04:00,82.5,75.1,29.97,SSE,152,0.0,2.2,78,0.00,,,0.00,WSDL version 420,2013-07-02 12:04:00,
2013-07-02 08:09:00,82.8,75.3,29.97,SE,138,0.0,0.0,78,0.00,,,0.00,WSDL version 420,2013-07-02 12:09:00,
2013-07-02 08:14:00,83.2,75.6,29.97,South,177,0.5,0.0,78,0.00,,,0.00,WSDL version 420,2013-07-02 12:14:00,
2013-07-02 08:19:00,83.9,76.0,29.97,East,79,0.0,2.0,77,0.00,,,0.00,WSDL version 420,2013-07-02 12:19:00,
2013-07-02 08:24:00,84.6,76.3,29.97,South,180,0.3,2.9,76,0.00,,,0.00,WSDL version 420,2013-07-02 12:24:00,
2013-07-02 08:29:00,85.6,76.9,29.97,WSW,240,0.0,2.9,74,0.00,,,0.00,WSDL version 420,2013-07-02 12:29:00,
2013-07-02 08:34:00,86.5,76.8,29.97,WSW,251,0.8,3.8,72,0.00,,,0.00,WSDL version 420,2013-07-02 12:34:00,
2013-07-02 08:39:00,86.4,76.2,29.97,South,185,2.1,4.3,71,0.00,,,0.00,WSDL version 420,2013-07-02 12:39:00,
2013-07-02 08:44:00,85.9,75.0,29.97,NW,325,1.3,4.3,70,0.00,,,0.00,WSDL version 420,2013-07-02 12:44:00,
2013-07-02 08:49:00,85.5,74.6,29.97,North,353,0.0,4.3,70,0.00,,,0.00,WSDL version 420,2013-07-02 12:49:00,
2013-07-02 08:54:00,85.8,74.6,29.97,SSE,158,2.0,3.8,69,0.00,,,0.00,WSDL version 420,2013-07-02 12:54:00,
2013-07-02 08:59:00,86.3,74.9,29.97,South,191,1.7,4.7,69,0.00,,,0.00,WSDL version 420,2013-07-02 12:59:00,
2013-07-02 09:04:00,87.0,75.6,29.97,South,188,1.1,4.7,69,0.00,,,0.00,WSDL version 420,2013-07-02 13:04:00,
2013-07-02 09:09:00,87.6,75.5,29.97,SSE,161,0.5,4.0,67,0.00,,,0.00,WSDL version 420,2013-07-02 13:09:00,
2013-07-02 09:14:00,87.4,75.0,29.97,SSE,161,2.1,4.0,66,0.00,,,0.00,WSDL version 420,2013-07-02 13:14:00,
2013-07-02 09:19:00,86.9,74.2,29.97,ESE,116,2.8,4.0,66,0.00,,,0.00,WSDL version 420,2013-07-02 13:19:00,
2013-07-02 09:24:00,86.7,74.0,29.97,SSE,167,2.4,4.0,66,0.00,,,0.00,WSDL version 420,2013-07-02 13:24:00,
2013-07-02 09:29:00,86.7,74.0,29.97,South,180,3.1,4.7,66,0.00,,,0.00,WSDL version 420,2013-07-02 13:29:00,
2013-07-02 09:34:00,87.1,74.3,29.97,SSE,167,1.9,4.7,66,0.00,,,0.00,WSDL version 420,2013-07-02 13:34:00,
2013-07-02 09:39:00,87.4,74.8,29.97,SSW,210,1.5,4.3,66,0.00,,,0.00,WSDL version 420,2013-07-02 13:39:00,
2013-07-02 09:44:00,87.8,74.8,29.94,NNE,26,3.3,8.1,65,0.00,,,0.00,WSDL version 420,2013-07-02 13:44:00,
2013-07-02 09:49:00,88.3,74.4,29.94,South,184,2.1,8.1,64,0.00,,,0.00,WSDL version 420,2013-07-02 13:49:00,
2013-07-02 09:54:00,89.1,74.9,29.94,SSE,155,1.7,7.2,63,0.00,,,0.00,WSDL version 420,2013-07-02 13:54:00,
2013-07-02 10:04:00,88.9,73.2,29.97,South,188,2.6,6.0,60,0.00,,,0.00,WSDL version 420,2013-07-02 14:04:00,
2013-07-02 10:09:00,88.7,73.4,29.97,WNW,293,2.1,6.0,61,0.00,,,0.00,WSDL version 420,2013-07-02 14:09:00,
2013-07-02 10:14:00,88.7,73.3,29.94,NNE,17,1.5,5.4,61,0.00,,,0.00,WSDL version 420,2013-07-02 14:14:00,
2013-07-02 10:19:00,88.7,73.4,29.94,WSW,241,1.4,3.6,61,0.00,,,0.00,WSDL version 420,2013-07-02 14:19:00,
2013-07-02 10:24:00,88.8,73.6,29.94,WSW,248,2.0,4.3,61,0.00,,,0.00,WSDL version 420,2013-07-02 14:24:00,
2013-07-02 10:29:00,89.0,73.8,29.97,SW,219,1.9,8.7,61,0.00,,,0.00,WSDL version 420,2013-07-02 14:29:00,
2013-07-02 10:34:00,89.0,73.5,29.97,NNE,30,2.5,8.7,60,0.00,,,0.00,WSDL version 420,2013-07-02 14:34:00,
2013-07-02 10:39:00,89.1,73.4,29.97,SSW,199,1.8,5.4,61,0.00,,,0.00,WSDL version 420,2013-07-02 14:39:00,
2013-07-02 10:44:00,89.0,73.1,29.97,SW,215,2.7,5.4,59,0.00,,,0.00,WSDL version 420,2013-07-02 14:44:00,
2013-07-02 10:49:00,88.8,72.9,29.97,ENE,75,2.1,6.5,60,0.00,,,0.00,WSDL version 420,2013-07-02 14:49:00,
2013-07-02 10:54:00,89.3,73.9,29.97,SE,141,2.5,7.6,60,0.00,,,0.00,WSDL version 420,2013-07-02 14:54:00,
2013-07-02 10:59:00,89.6,73.7,29.97,SW,214,3.7,7.6,60,0.00,,,0.00,WSDL version 420,2013-07-02 14:59:00,
2013-07-02 11:04:00,89.9,72.1,29.97,ENE,78,2.7,6.7,55,0.00,,,0.00,WSDL version 420,2013-07-02 15:04:00,
2013-07-02 11:09:00,90.4,72.8,29.97,SSE,163,3.9,6.7,57,0.00,,,0.00,WSDL version 420,2013-07-02 15:09:00,
2013-07-02 11:14:00,91.5,74.0,29.97,SE,143,1.6,5.4,56,0.00,,,0.00,WSDL version 420,2013-07-02 15:14:00,
2013-07-02 11:19:00,91.2,73.0,29.97,SSE,167,3.5,6.5,55,0.00,,,0.00,WSDL version 420,2013-07-02 15:19:00,
2013-07-02 11:24:00,91.1,72.4,29.97,NNE,30,4.0,10.5,55,0.00,,,0.00,WSDL version 420,2013-07-02 15:24:00,
2013-07-02 11:29:00,91.5,72.4,29.97,NW,311,1.4,10.5,54,0.00,,,0.00,WSDL version 420,2013-07-02 15:29:00,
2013-07-02 11:34:00,92.3,72.8,29.97,SW,228,3.3,6.0,52,0.00,,,0.00,WSDL version 420,2013-07-02 15:34:00,
2013-07-02 11:39:00,92.4,72.2,29.97,SE,127,3.1,4.3,52,0.00,,,0.00,WSDL version 420,2013-07-02 15:39:00,
2013-07-02 11:44:00,91.8,72.0,29.97,ESE,113,3.1,5.4,52,0.00,,,0.00,WSDL version 420,2013-07-02 15:44:00,
2013-07-02 11:49:00,90.3,69.7,29.97,NE,48,2.9,7.4,51,0.00,,,0.00,WSDL version 420,2013-07-02 15:49:00,
2013-07-02 11:54:00,89.7,70.1,29.97,NE,48,2.4,7.4,53,0.00,,,0.00,WSDL version 420,2013-07-02 15:54:00,
2013-07-02 11:59:00,88.8,70.1,29.97,SW,230,2.6,6.3,55,0.00,,,0.00,WSDL version 420,2013-07-02 15:59:00,
2013-07-02 12:04:00,88.5,70.7,29.97,ESE,103,3.8,6.3,56,0.00,,,0.00,WSDL version 420,2013-07-02 16:04:00,
2013-07-02 12:09:00,88.1,70.4,29.97,ESE,103,3.0,6.0,57,0.00,,,0.00,WSDL version 420,2013-07-02 16:09:00,
2013-07-02 12:14:00,88.0,71.1,29.97,SE,127,3.1,6.5,58,0.00,,,0.00,WSDL version 420,2013-07-02 16:14:00,
2013-07-02 12:19:00,88.0,71.7,29.97,SSE,152,1.1,6.5,59,0.00,,,0.00,WSDL version 420,2013-07-02 16:19:00,
2013-07-02 12:24:00,88.0,71.9,29.97,WNW,299,0.5,4.9,59,0.00,,,0.00,WSDL version 420,2013-07-02 16:24:00,
2013-07-02 12:29:00,88.0,71.7,30.00,ENE,74,2.6,5.6,58,0.00,,,0.00,WSDL version 420,2013-07-02 16:29:00,
2013-07-02 12:34:00,87.8,71.3,30.00,SE,135,3.6,5.6,59,0.00,,,0.00,WSDL version 420,2013-07-02 16:34:00,
2013-07-02 12:39:00,87.6,71.5,30.00,SW,214,2.1,5.8,59,0.00,,,0.00,WSDL version 420,2013-07-02 16:39:00,
2013-07-02 12:44:00,87.6,71.4,29.97,ESE,113,3.7,6.5,58,0.00,,,0.00,WSDL version 420,2013-07-02 16:44:00,
2013-07-02 12:49:00,87.9,71.8,29.97,East,84,2.1,6.5,59,0.00,,,0.00,WSDL version 420,2013-07-02 16:49:00,
2013-07-02 12:54:00,88.3,72.0,29.97,ESE,110,3.0,6.0,58,0.00,,,0.00,WSDL version 420,2013-07-02 16:54:00,
2013-07-02 12:59:00,88.7,72.0,29.97,SSE,158,2.5,6.0,58,0.00,,,0.00,WSDL version 420,2013-07-02 16:59:00,
2013-07-02 13:04:00,89.0,72.3,29.97,NNE,20,1.5,4.5,58,0.00,,,0.00,WSDL version 420,2013-07-02 17:04:00,
2013-07-02 13:09:00,89.1,71.8,29.97,East,83,2.8,10.1,56,0.00,,,0.00,WSDL version 420,2013-07-02 17:09:00,
2013-07-02 13:14:00,89.0,71.2,29.97,SE,129,2.2,10.1,56,0.00,,,0.00,WSDL version 420,2013-07-02 17:14:00,
2013-07-02 13:19:00,89.2,71.6,29.97,ESE,116,3.9,7.2,56,0.00,,,0.00,WSDL version 420,2013-07-02 17:19:00,
2013-07-02 13:24:00,89.2,71.6,29.97,SE,124,2.9,7.2,57,0.00,,,0.00,WSDL version 420,2013-07-02 17:24:00,
2013-07-02 13:29:00,88.8,71.6,29.94,SSE,167,3.7,6.9,57,0.00,,,0.00,WSDL version 420,2013-07-02 17:29:00,
2013-07-02 13:34:00,88.3,71.2,29.94,ESE,109,1.8,8.7,57,0.00,,,0.00,WSDL version 420,2013-07-02 17:34:00,
2013-07-02 13:39:00,87.8,71.0,29.94,South,188,1.9,8.7,58,0.00,,,0.00,WSDL version 420,2013-07-02 17:39:00,
2013-07-02 13:44:00,87.5,70.9,29.97,South,184,3.1,6.3,58,0.00,,,0.00,WSDL version 420,2013-07-02 17:44:00,
2013-07-02 13:49:00,87.1,70.8,29.97,WSW,242,3.3,7.4,59,0.00,,,0.00,WSDL version 420,2013-07-02 17:49:00,
2013-07-02 13:59:00,86.5,71.2,29.97,SSE,160,1.5,4.0,61,0.00,,,0.00,WSDL version 420,2013-07-02 17:59:00,
2013-07-02 14:04:00,86.2,71.7,29.97,SSE,162,1.1,4.0,62,0.00,,,0.00,WSDL version 420,2013-07-02 18:04:00,
2013-07-02 14:09:00,86.0,71.9,29.97,ESE,122,1.4,3.6,63,0.00,,,0.00,WSDL version 420,2013-07-02 18:09:00,
2013-07-02 14:14:00,85.8,72.2,29.97,South,172,2.3,4.5,64,0.00,,,0.00,WSDL version 420,2013-07-02 18:14:00,
2013-07-02 14:19:00,85.8,72.2,29.97,South,180,1.1,4.5,64,0.00,,,0.00,WSDL version 420,2013-07-02 18:19:00,
2013-07-02 14:24:00,85.8,72.5,29.97,WSW,241,2.9,5.8,64,0.00,,,0.00,WSDL version 420,2013-07-02 18:24:00,
2013-07-02 14:29:00,85.6,72.5,29.97,NNW,341,0.0,5.8,65,0.00,,,0.00,WSDL version 420,2013-07-02 18:29:00,
2013-07-02 14:34:00,85.5,72.4,29.97,South,186,1.1,2.7,65,0.00,,,0.00,WSDL version 420,2013-07-02 18:34:00,
2013-07-02 14:39:00,85.4,72.4,29.97,NNW,330,0.0,2.7,65,0.00,,,0.00,WSDL version 420,2013-07-02 18:39:00,
2013-07-02 14:49:00,85.5,72.8,29.97,WNW,300,0.0,0.0,66,0.00,,,0.00,WSDL version 420,2013-07-02 18:49:00,
2013-07-02 14:54:00,85.3,72.6,29.97,WSW,248,0.0,0.0,66,0.00,,,0.00,WSDL version 420,2013-07-02 18:54:00,
2013-07-02 14:59:00,85.6,73.0,29.97,NNW,332,0.4,2.2,66,0.00,,,0.00,WSDL version 420,2013-07-02 18:59:00,
2013-07-02 15:04:00,86.0,73.4,29.97,NNW,338,1.6,3.1,66,0.00,,,0.00,WSDL version 420,2013-07-02 19:04:00,
2013-07-02 15:09:00,86.4,73.5,29.97,North,3,0.4,3.1,65,0.00,,,0.00,WSDL version 420,2013-07-02 19:09:00,
2013-07-02 15:14:00,86.2,73.1,29.97,North,4,2.0,3.6,65,0.00,,,0.00,WSDL version 420,2013-07-02 19:14:00,
2013-07-02 15:19:00,86.0,72.8,29.97,NNW,341,0.7,3.6,65,0.00,,,0.00,WSDL version 420,2013-07-02 19:19:00,
2013-07-02 15:24:00,85.9,73.1,29.97,NNW,334,1.3,3.6,66,0.00,,,0.00,WSDL version 420,2013-07-02 19:24:00,
2013-07-02 15:29:00,85.6,73.0,29.97,SSW,203,1.1,3.1,66,0.00,,,0.00,WSDL version 420,2013-07-02 19:29:00,
2013-07-02 15:34:00,84.8,72.2,29.97,SE,138,1.2,4.9,66,0.04,,,0.04,WSDL version 420,2013-07-02 19:34:00,
2013-07-02 15:39:00,82.6,69.8,29.97,North,356,0.0,4.9,66,0.04,,,0.04,WSDL version 420,2013-07-02 19:39:00,
2013-07-02 15:44:00,81.5,69.1,29.97,SSW,208,0.6,3.4,67,0.04,,,0.04,WSDL version 420,2013-07-02 19:44:00,
2013-07-02 15:49:00,80.7,68.7,29.97,ESE,113,2.2,4.3,67,0.04,,,0.04,WSDL version 420,2013-07-02 19:49:00,
2013-07-02 15:54:00,79.7,68.0,29.97,SW,225,0.6,4.3,68,0.04,,,0.04,WSDL version 420,2013-07-02 19:54:00,
2013-07-02 15:59:00,78.9,67.8,29.97,SW,234,1.4,4.3,70,0.08,,,0.08,WSDL version 420,2013-07-02 19:59:00,
2013-07-02 16:04:00,78.7,68.6,29.97,SSE,165,1.9,4.3,72,0.16,,,0.16,WSDL version 420,2013-07-02 20:04:00,
2013-07-02 16:09:00,78.4,69.3,29.97,WNW,293,0.0,3.1,74,0.16,,,0.16,WSDL version 420,2013-07-02 20:09:00,
2013-07-02 16:14:00,78.5,69.9,30.00,SSW,212,0.5,2.5,75,0.16,,,0.16,WSDL version 420,2013-07-02 20:14:00,
2013-07-02 16:19:00,78.8,70.6,30.00,North,360,0.0,1.3,76,0.16,,,0.16,WSDL version 420,2013-07-02 20:19:00,
2013-07-02 16:24:00,79.0,70.9,30.00,SW,225,0.0,0.0,77,0.16,,,0.16,WSDL version 420,2013-07-02 20:24:00,
2013-07-02 16:29:00,79.2,71.4,29.97,North,11,0.0,1.6,77,0.16,,,0.16,WSDL version 420,2013-07-02 20:29:00,
2013-07-02 16:34:00,79.5,71.7,29.97,NE,45,0.0,1.6,77,0.16,,,0.16,WSDL version 420,2013-07-02 20:34:00,
2013-07-02 16:39:00,79.9,72.4,29.97,NW,318,0.5,2.9,78,0.12,,,0.16,WSDL version 420,2013-07-02 20:39:00,
2013-07-02 16:44:00,80.4,73.1,29.94,NW,307,0.0,2.9,78,0.12,,,0.16,WSDL version 420,2013-07-02 20:44:00,
2013-07-02 16:49:00,80.9,73.4,29.94,NNW,345,0.0,2.0,78,0.12,,,0.16,WSDL version 420,2013-07-02 20:49:00,
2013-07-02 16:54:00,81.5,73.6,29.94,North,3,0.0,2.0,77,0.12,,,0.16,WSDL version 420,2013-07-02 20:54:00,
2013-07-02 16:59:00,81.9,73.8,29.94,North,352,0.1,1.6,76,0.08,,,0.16,WSDL version 420,2013-07-02 20:59:00,
2013-07-02 17:04:00,82.3,73.8,29.94,North,6,0.5,2.2,75,0.00,,,0.16,WSDL version 420,2013-07-02 21:04:00,
2013-07-02 17:09:00,82.8,74.1,29.94,North,360,1.5,2.7,75,0.00,,,0.16,WSDL version 420,2013-07-02 21:09:00,
2013-07-02 17:14:00,82.7,73.6,29.94,North,3,0.3,2.7,73,0.00,,,0.16,WSDL version 420,2013-07-02 21:14:00,
2013-07-02 17:19:00,82.7,72.9,29.94,North,360,0.4,1.6,72,0.00,,,0.16,WSDL version 420,2013-07-02 21:19:00,
2013-07-02 17:24:00,82.7,72.6,29.94,North,357,1.0,2.7,72,0.00,,,0.16,WSDL version 420,2013-07-02 21:24:00,
2013-07-02 17:29:00,82.8,72.4,29.94,North,350,0.0,2.7,71,0.00,,,0.16,WSDL version 420,2013-07-02 21:29:00,
2013-07-02 17:34:00,82.8,72.0,29.94,North,6,0.0,0.9,70,0.00,,,0.16,WSDL version 420,2013-07-02 21:34:00,
2013-07-02 17:39:00,82.8,72.1,29.94,NNW,338,0.0,0.0,71,0.00,,,0.16,WSDL version 420,2013-07-02 21:39:00,
2013-07-02 17:49:00,82.6,72.1,29.97,NNW,331,0.0,0.0,70,0.00,,,0.16,WSDL version 420,2013-07-02 21:49:00,
2013-07-02 17:54:00,82.4,71.7,29.97,NE,39,0.0,0.0,70,0.00,,,0.16,WSDL version 420,2013-07-02 21:54:00,
2013-07-02 17:59:00,82.4,71.6,29.97,North,354,0.0,0.0,70,0.00,,,0.16,WSDL version 420,2013-07-02 21:59:00,
2013-07-02 18:04:00,82.3,71.8,29.97,North,6,0.0,2.2,70,0.00,,,0.16,WSDL version 420,2013-07-02 22:04:00,
2013-07-02 18:09:00,82.3,71.7,29.97,NNE,23,0.0,2.2,70,0.00,,,0.16,WSDL version 420,2013-07-02 22:09:00,
2013-07-02 18:14:00,82.3,72.0,29.97,North,360,0.0,1.6,71,0.00,,,0.16,WSDL version 420,2013-07-02 22:14:00,
2013-07-02 18:19:00,82.2,71.9,29.97,North,360,0.0,0.0,71,0.00,,,0.16,WSDL version 420,2013-07-02 22:19:00,
2013-07-02 18:24:00,82.1,71.9,29.97,NNW,341,0.9,2.0,71,0.00,,,0.16,WSDL version 420,2013-07-02 22:24:00,
2013-07-02 18:29:00,82.0,71.7,29.97,North,360,0.0,2.0,71,0.00,,,0.16,WSDL version 420,2013-07-02 22:29:00,
2013-07-02 18:34:00,82.0,72.1,29.97,North,354,0.0,1.1,72,0.00,,,0.16,WSDL version 420,2013-07-02 22:34:00,
2013-07-02 18:39:00,81.6,71.7,29.97,North,360,0.0,1.1,72,0.00,,,0.16,WSDL version 420,2013-07-02 22:39:00,
2013-07-02 18:44:00,81.5,71.6,29.94,NNE,23,0.0,0.0,72,0.00,,,0.16,WSDL version 420,2013-07-02 22:44:00,
2013-07-02 18:49:00,81.2,71.3,29.94,NNW,342,0.0,0.0,72,0.00,,,0.16,WSDL version 420,2013-07-02 22:49:00,
2013-07-02 18:54:00,81.1,71.5,29.94,North,360,0.0,0.0,73,0.00,,,0.16,WSDL version 420,2013-07-02 22:54:00,
2013-07-02 18:59:00,81.0,71.5,29.94,NNE,32,0.0,0.0,73,0.00,,,0.16,WSDL version 420,2013-07-02 22:59:00,
2013-07-02 19:04:00,80.8,71.7,29.94,NE,45,0.0,0.0,74,0.00,,,0.16,WSDL version 420,2013-07-02 23:04:00,
2013-07-02 19:09:00,80.6,72.0,29.94,ENE,60,0.0,0.0,75,0.00,,,0.16,WSDL version 420,2013-07-02 23:09:00,
2013-07-02 19:14:00,80.5,72.1,29.97,North,349,0.0,0.0,76,0.00,,,0.16,WSDL version 420,2013-07-02 23:14:00,
2013-07-02 19:19:00,80.4,72.2,29.97,NNW,338,0.0,0.0,76,0.00,,,0.16,WSDL version 420,2013-07-02 23:19:00,
2013-07-02 19:24:00,80.3,72.3,29.97,NNW,334,0.0,0.0,77,0.00,,,0.16,WSDL version 420,2013-07-02 23:24:00,
2013-07-02 19:29:00,80.2,72.4,29.97,ESE,113,0.0,0.0,77,0.00,,,0.16,WSDL version 420,2013-07-02 23:29:00,
2013-07-02 19:34:00,80.2,72.7,29.97,ESE,113,0.0,0.0,78,-99.99,,,-99.99,WSDL version 420,2013-07-02 23:34:00,
2013-07-02 19:44:00,79.8,72.3,30.00,NW,315,0.9,3.1,78,-99.99,,,-99.99,WSDL version 420,2013-07-02 23:44:00,
2013-07-02 19:49:00,79.4,71.8,30.00,South,180,0.0,3.1,77,-99.99,,,-99.99,WSDL version 420,2013-07-02 23:49:00,
2013-07-02 19:54:00,79.2,71.2,30.00,South,180,0.0,0.0,76,-99.99,,,-99.99,WSDL version 420,2013-07-02 23:54:00,
2013-07-02 19:59:00,78.6,70.3,30.00,South,180,0.0,0.0,75,0.00,,,0.16,WSDL version 420,2013-07-02 23:59:00,
2013-07-02 20:04:00,77.9,68.9,30.00,WNW,293,0.0,0.0,74,0.00,,,0.16,WSDL version 420,2013-07-03 00:04:00,
2013-07-02 20:09:00,77.5,68.3,30.00,WNW,293,0.0,0.0,73,-99.99,,,-99.99,WSDL version 420,2013-07-03 00:09:00,
2013-07-02 20:14:00,77.2,67.9,30.00,WNW,293,0.0,0.0,73,-99.99,,,-99.99,WSDL version 420,2013-07-03 00:14:00,
2013-07-02 20:19:00,76.9,68.0,30.00,North,0,0.0,0.0,74,-99.99,,,-99.99,WSDL version 420,2013-07-03 00:19:00,
2013-07-02 20:24:00,76.6,67.7,30.00,North,0,0.0,0.0,74,-99.99,,,-99.99,WSDL version 420,2013-07-03 00:24:00,
2013-07-02 20:29:00,76.4,67.7,30.00,North,-999,-999.0,-999.0,75,-99.99,,,-99.99,WSDL version 420,2013-07-03 00:29:00,
2013-07-02 20:34:00,76.1,67.6,30.00,North,-999,-999.0,-999.0,75,-99.99,,,-99.99,WSDL version 420,2013-07-03 00:34:00,
2013-07-02 20:39:00,76.0,67.5,30.00,North,-999,-999.0,-999.0,75,-99.99,,,-99.99,WSDL version 420,2013-07-03 00:39:00,
2013-07-02 20:44:00,75.7,67.3,30.00,North,-999,-999.0,-999.0,75,-99.99,,,-99.99,WSDL version 420,2013-07-03 00:44:00,
2013-07-02 20:49:00,75.6,67.1,30.00,North,-999,-999.0,-999.0,75,-99.99,,,-99.99,WSDL version 420,2013-07-03 00:49:00,
2013-07-02 20:54:00,75.5,67.0,30.00,North,-999,-999.0,-999.0,75,-99.99,,,-99.99,WSDL version 420,2013-07-03 00:54:00,
2013-07-02 20:59:00,75.4,66.9,30.00,North,-999,-999.0,-999.0,75,-99.99,,,-99.99,WSDL version 420,2013-07-03 00:59:00,
2013-07-02 21:04:00,75.2,66.7,30.00,NE,45,0.0,0.0,75,-99.99,,,-99.99,WSDL version 420,2013-07-03 01:04:00,
2013-07-02 21:09:00,75.4,67.3,30.00,NE,45,0.0,0.0,76,-99.99,,,-99.99,WSDL version 420,2013-07-03 01:09:00,
2013-07-02 21:14:00,75.2,67.2,30.03,SW,225,0.0,0.0,77,-99.99,,,-99.99,WSDL version 420,2013-07-03 01:14:00,
2013-07-02 21:19:00,75.0,67.3,30.03,SW,225,0.0,0.0,77,-99.99,,,-99.99,WSDL version 420,2013-07-03 01:19:00,
2013-07-02 21:24:00,75.1,67.4,30.03,SW,225,0.0,0.0,77,-99.99,,,-99.99,WSDL version 420,2013-07-03 01:24:00,
2013-07-02 21:29:00,75.2,67.5,30.03,SW,225,0.0,0.0,77,-99.99,,,-99.99,WSDL version 420,2013-07-03 01:29:00,
2013-07-02 21:34:00,75.1,67.8,30.03,SSE,158,0.0,0.0,78,-99.99,,,-99.99,WSDL version 420,2013-07-03 01:34:00,
2013-07-02 21:39:00,75.0,67.7,30.03,SSE,158,0.0,0.0,78,0.00,,,0.16,WSDL version 420,2013-07-03 01:39:00,
2013-07-02 21:44:00,75.0,67.9,30.03,SSE,158,0.0,0.0,79,0.00,,,0.16,WSDL version 420,2013-07-03 01:44:00,
2013-07-02 21:49:00,75.0,68.0,30.03,SSE,158,0.0,0.0,79,-99.99,,,-99.99,WSDL version 420,2013-07-03 01:49:00,
2013-07-02 21:54:00,74.9,68.0,30.03,SSE,158,0.0,0.0,79,-99.99,,,-99.99,WSDL version 420,2013-07-03 01:54:00,
2013-07-02 21:59:00,74.8,67.9,30.06,North,0,0.0,0.0,79,-99.99,,,-99.99,WSDL version 420,2013-07-03 01:59:00,
2013-07-02 22:06:00,74.8,67.9,30.06,ENE,68,0.0,0.0,79,-99.99,,,-99.99,WSDL version 420,2013-07-03 02:06:00,
2013-07-02 22:11:00,74.8,67.9,30.06,ENE,68,0.0,0.0,79,-99.99,,,-99.99,WSDL version 420,2013-07-03 02:11:00,
2013-07-02 22:16:00,74.8,67.9,30.03,North,360,0.0,0.0,79,0.00,,,0.16,WSDL version 420,2013-07-03 02:16:00,
2013-07-02 22:23:00,74.9,68.3,30.03,North,360,0.0,0.0,80,-99.99,,,-99.99,WSDL version 420,2013-07-03 02:23:00,
2013-07-02 22:28:00,74.8,68.3,30.03,North,360,0.0,0.0,80,-99.99,,,-99.99,WSDL version 420,2013-07-03 02:28:00,
2013-07-02 22:33:00,74.8,68.3,30.03,North,10,0.0,0.0,80,-99.99,,,-99.99,WSDL version 420,2013-07-03 02:33:00,
2013-07-02 22:38:00,74.8,68.3,30.03,NNE,23,0.0,0.0,80,-99.99,,,-99.99,WSDL version 420,2013-07-03 02:38:00,
2013-07-02 22:43:00,74.8,68.3,30.03,NNE,23,0.0,0.0,80,-99.99,,,-99.99,WSDL version 420,2013-07-03 02:43:00,
2013-07-02 22:48:00,74.9,68.4,30.03,NNE,23,0.0,0.0,81,0.00,,,0.16,WSDL version 420,2013-07-03 02:48:00,
2013-07-02 22:53:00,74.9,68.7,30.03,NNE,23,0.0,0.0,81,0.00,,,0.16,WSDL version 420,2013-07-03 02:53:00,
2013-07-02 23:00:00,74.8,68.6,30.03,ENE,58,0.0,0.0,81,0.00,,,0.16,WSDL version 420,2013-07-03 03:00:00,
2013-07-02 23:06:00,74.8,68.7,30.03,East,90,0.0,0.0,81,-99.99,,,-99.99,WSDL version 420,2013-07-03 03:06:00,
2013-07-02 23:11:00,75.0,68.8,30.03,East,90,0.0,0.0,81,0.00,,,0.16,WSDL version 420,2013-07-03 03:11:00,
2013-07-02 23:16:00,74.9,68.7,30.03,East,90,0.0,0.0,81,0.00,,,0.16,WSDL version 420,2013-07-03 03:16:00,
2013-07-02 23:23:00,74.8,68.7,30.03,North,360,0.0,0.0,81,-99.99,,,-99.99,WSDL version 420,2013-07-03 03:23:00,
2013-07-02 23:28:00,74.8,68.8,30.03,North,360,0.0,0.0,82,0.00,,,0.16,WSDL version 420,2013-07-03 03:28:00,
2013-07-02 23:33:00,74.8,69.0,30.03,North,360,0.0,0.0,82,0.00,,,0.16,WSDL version 420,2013-07-03 03:33:00,
2013-07-02 23:40:00,74.7,68.9,30.03,North,360,0.0,0.0,82,0.00,,,0.16,WSDL version 420,2013-07-03 03:40:00,
2013-07-02 23:50:00,74.7,69.3,30.03,North,360,0.0,0.0,83,-99.99,,,-99.99,WSDL version 420,2013-07-03 03:50:00,
2013-07-02 23:55:00,74.8,69.4,30.03,North,360,0.0,0.0,83,0.00,,,0.16,WSDL version 420,2013-07-03 03:55:00,